Year,Month,Day,Hour,Minute,Value (Times are PST for windgust in km/hr)
2017,05,20,00,55,4.80
2017,05,20,00,56,3.20
2017,05,20,00,57,3.20
2017,05,20,00,58,4.80
2017,05,20,01,00,6.40
2017,05,20,01,01,1.60
2017,05,20,01,08,4.80
2017,05,20,01,09,4.80
2017,05,20,01,10,3.20
2017,05,20,01,12,4.80
2017,05,20,01,14,3.20
2017,05,20,01,15,4.80
2017,05,20,01,16,4.80
2017,05,20,01,17,4.80
2017,05,20,01,18,4.80
2017,05,20,01,19,4.80
2017,05,20,01,20,1.60
2017,05,20,01,21,3.20
2017,05,20,01,23,4.80
2017,05,20,01,24,3.20
2017,05,20,01,26,1.60
2017,05,20,01,28,4.80
2017,05,20,01,29,3.20
2017,05,20,01,49,3.20
2017,05,20,01,52,1.60
2017,05,20,01,53,3.20
2017,05,20,02,44,4.80
2017,05,20,02,45,4.80
2017,05,20,02,46,3.20
2017,05,20,02,48,1.60
2017,05,20,02,49,3.20
2017,05,20,02,50,3.20
2017,05,20,02,52,1.60
2017,05,20,02,53,3.20
2017,05,20,03,04,3.20
2017,05,20,03,11,1.60
2017,05,20,03,12,1.60
2017,05,20,03,48,1.60
2017,05,20,03,49,1.60
2017,05,20,03,51,1.60
2017,05,20,03,56,6.40
2017,05,20,03,57,6.40
2017,05,20,03,58,4.80
2017,05,20,03,59,3.20
2017,05,20,04,00,1.60
2017,05,20,04,24,1.60
2017,05,20,04,54,4.80
2017,05,20,04,55,3.20
2017,05,20,04,56,1.60
2017,05,20,04,59,3.20
2017,05,20,05,00,1.60
2017,05,20,06,21,3.20
2017,05,20,06,22,4.80
2017,05,20,06,23,1.60
2017,05,20,06,24,3.20
2017,05,20,06,25,3.20
2017,05,20,06,26,3.20
2017,05,20,06,27,1.60
2017,05,20,06,51,1.60
2017,05,20,07,03,1.60
2017,05,20,07,04,4.80
2017,05,20,07,06,4.80
2017,05,20,07,07,3.20
2017,05,20,07,08,4.80
2017,05,20,07,10,4.80
2017,05,20,07,11,1.60
2017,05,20,07,12,1.60
2017,05,20,07,13,1.60
2017,05,20,07,15,4.80
2017,05,20,07,16,6.40
2017,05,20,07,17,3.20
2017,05,20,07,18,6.40
2017,05,20,07,19,8.10
2017,05,20,07,20,4.80
2017,05,20,07,21,1.60
2017,05,20,07,22,1.60
2017,05,20,07,26,1.60
2017,05,20,07,27,4.80
2017,05,20,07,28,4.80
2017,05,20,07,31,1.60
2017,05,20,07,32,4.80
2017,05,20,07,33,3.20
2017,05,20,07,35,6.40
2017,05,20,07,36,4.80
2017,05,20,07,37,6.40
2017,05,20,07,38,6.40
2017,05,20,07,39,6.40
2017,05,20,07,40,4.80
2017,05,20,07,41,4.80
2017,05,20,07,42,4.80
2017,05,20,07,43,6.40
2017,05,20,07,44,4.80
2017,05,20,07,45,6.40
2017,05,20,07,46,6.40
2017,05,20,07,47,6.40
2017,05,20,07,48,4.80
2017,05,20,07,49,4.80
2017,05,20,07,50,6.40
2017,05,20,07,51,6.40
2017,05,20,07,52,4.80
2017,05,20,07,53,4.80
2017,05,20,07,54,4.80
2017,05,20,07,55,4.80
2017,05,20,07,56,6.40
2017,05,20,07,57,6.40
2017,05,20,07,58,6.40
2017,05,20,07,59,1.60
2017,05,20,08,00,4.80
2017,05,20,08,01,3.20
2017,05,20,08,02,6.40
2017,05,20,08,03,6.40
2017,05,20,08,04,6.40
2017,05,20,08,05,4.80
2017,05,20,08,06,4.80
2017,05,20,08,07,3.20
2017,05,20,08,08,4.80
2017,05,20,08,09,4.80
2017,05,20,08,10,3.20
2017,05,20,08,11,3.20
2017,05,20,08,12,1.60
2017,05,20,08,13,4.80
2017,05,20,08,14,1.60
2017,05,20,08,15,1.60
2017,05,20,08,16,4.80
2017,05,20,08,17,3.20
2017,05,20,08,18,4.80
2017,05,20,08,19,3.20
2017,05,20,08,20,4.80
2017,05,20,08,21,4.80
2017,05,20,08,22,6.40
2017,05,20,08,23,3.20
2017,05,20,08,24,4.80
2017,05,20,08,25,6.40
2017,05,20,08,26,6.40
2017,05,20,08,27,4.80
2017,05,20,08,28,6.40
2017,05,20,08,29,6.40
2017,05,20,08,30,6.40
2017,05,20,08,31,4.80
2017,05,20,08,32,4.80
2017,05,20,08,33,6.40
2017,05,20,08,34,4.80
2017,05,20,08,35,4.80
2017,05,20,08,36,4.80
2017,05,20,08,37,4.80
2017,05,20,08,38,4.80
2017,05,20,08,39,4.80
2017,05,20,08,40,4.80
2017,05,20,08,42,4.80
2017,05,20,08,43,6.40
2017,05,20,08,44,4.80
2017,05,20,08,45,3.20
2017,05,20,08,46,3.20
2017,05,20,08,47,8.10
2017,05,20,08,48,6.40
2017,05,20,08,49,8.10
2017,05,20,08,50,9.60
2017,05,20,08,51,9.60
2017,05,20,08,52,11.30
2017,05,20,08,53,9.60
2017,05,20,08,54,9.60
2017,05,20,08,55,9.60
2017,05,20,08,56,8.10
2017,05,20,08,57,6.40
2017,05,20,08,58,8.10
2017,05,20,08,59,6.40
2017,05,20,09,00,8.10
2017,05,20,09,01,9.60
2017,05,20,09,02,4.80
2017,05,20,09,03,9.60
2017,05,20,09,04,9.60
2017,05,20,09,05,8.10
2017,05,20,09,06,9.60
2017,05,20,09,07,8.10
2017,05,20,09,08,4.80
2017,05,20,09,09,6.40
2017,05,20,09,10,3.20
2017,05,20,09,11,6.40
2017,05,20,09,12,6.40
2017,05,20,09,13,4.80
2017,05,20,09,14,4.80
2017,05,20,09,15,3.20
2017,05,20,09,16,6.40
2017,05,20,09,17,6.40
2017,05,20,09,18,6.40
2017,05,20,09,19,8.10
2017,05,20,09,20,8.10
2017,05,20,09,21,3.20
2017,05,20,09,22,1.60
2017,05,20,09,23,1.60
2017,05,20,09,24,4.80
2017,05,20,09,25,1.60
2017,05,20,09,26,3.20
2017,05,20,09,27,4.80
2017,05,20,09,28,4.80
2017,05,20,09,29,4.80
2017,05,20,09,30,8.10
2017,05,20,09,31,8.10
2017,05,20,09,32,8.10
2017,05,20,09,33,8.10
2017,05,20,09,34,3.20
2017,05,20,09,35,6.40
2017,05,20,09,36,9.60
2017,05,20,09,37,8.10
2017,05,20,09,38,11.30
2017,05,20,09,39,11.30
2017,05,20,09,40,6.40
2017,05,20,09,41,6.40
2017,05,20,09,42,11.30
2017,05,20,09,43,8.10
2017,05,20,09,44,8.10
2017,05,20,09,45,9.60
2017,05,20,09,46,9.60
2017,05,20,09,47,4.80
2017,05,20,09,48,6.40
2017,05,20,09,49,8.10
2017,05,20,09,50,8.10
2017,05,20,09,51,3.20
2017,05,20,09,52,4.80
2017,05,20,09,53,3.20
2017,05,20,09,54,6.40
2017,05,20,09,55,4.80
2017,05,20,09,56,8.10
2017,05,20,09,57,6.40
2017,05,20,09,58,6.40
2017,05,20,09,59,4.80
2017,05,20,10,00,6.40
2017,05,20,10,01,3.20
2017,05,20,10,02,11.30
2017,05,20,10,03,8.10
2017,05,20,10,04,8.10
2017,05,20,10,05,8.10
2017,05,20,10,06,11.30
2017,05,20,10,07,9.60
2017,05,20,10,08,8.10
2017,05,20,10,09,11.30
2017,05,20,10,10,9.60
2017,05,20,10,11,9.60
2017,05,20,10,12,9.60
2017,05,20,10,13,9.60
2017,05,20,10,14,14.50
2017,05,20,10,15,11.30
2017,05,20,10,16,8.10
2017,05,20,10,17,9.60
2017,05,20,10,18,9.60
2017,05,20,10,19,9.60
2017,05,20,10,20,11.30
2017,05,20,10,21,6.40
2017,05,20,10,22,9.60
2017,05,20,10,23,6.40
2017,05,20,10,24,8.10
2017,05,20,10,25,9.60
2017,05,20,10,26,8.10
2017,05,20,10,27,8.10
2017,05,20,10,28,4.80
2017,05,20,10,29,6.40
2017,05,20,10,30,8.10
2017,05,20,10,31,6.40
2017,05,20,10,32,6.40
2017,05,20,10,33,8.10
2017,05,20,10,34,8.10
2017,05,20,10,35,11.30
2017,05,20,10,36,9.60
2017,05,20,10,37,4.80
2017,05,20,10,38,1.60
2017,05,20,10,39,8.10
2017,05,20,10,40,4.80
2017,05,20,10,41,4.80
2017,05,20,10,42,1.60
2017,05,20,10,43,9.60
2017,05,20,10,44,6.40
2017,05,20,10,45,8.10
2017,05,20,10,46,9.60
2017,05,20,10,47,11.30
2017,05,20,10,48,9.60
2017,05,20,10,49,14.50
2017,05,20,10,50,9.60
2017,05,20,10,51,11.30
2017,05,20,10,52,8.10
2017,05,20,10,53,8.10
2017,05,20,10,54,4.80
2017,05,20,10,55,9.60
2017,05,20,10,56,9.60
2017,05,20,10,57,4.80
2017,05,20,10,58,6.40
2017,05,20,10,59,6.40
2017,05,20,11,00,6.40
2017,05,20,11,01,4.80
2017,05,20,11,02,8.10
2017,05,20,11,03,11.30
2017,05,20,11,04,9.60
2017,05,20,11,05,14.50
2017,05,20,11,06,8.10
2017,05,20,11,07,4.80
2017,05,20,11,08,6.40
2017,05,20,11,09,6.40
2017,05,20,11,10,6.40
2017,05,20,11,11,6.40
2017,05,20,11,12,4.80
2017,05,20,11,13,8.10
2017,05,20,11,14,6.40
2017,05,20,11,15,4.80
2017,05,20,11,16,4.80
2017,05,20,11,17,6.40
2017,05,20,11,18,4.80
2017,05,20,11,19,11.30
2017,05,20,11,20,6.40
2017,05,20,11,21,6.40
2017,05,20,11,22,6.40
2017,05,20,11,23,8.10
2017,05,20,11,24,6.40
2017,05,20,11,25,6.40
2017,05,20,11,26,6.40
2017,05,20,11,27,8.10
2017,05,20,11,28,9.60
2017,05,20,11,29,6.40
2017,05,20,11,30,8.10
2017,05,20,11,31,6.40
2017,05,20,11,32,9.60
2017,05,20,11,33,14.50
2017,05,20,11,34,8.10
2017,05,20,11,35,14.50
2017,05,20,11,36,14.50
2017,05,20,11,37,9.60
2017,05,20,11,38,11.30
2017,05,20,11,39,11.30
2017,05,20,11,40,9.60
2017,05,20,11,41,9.60
2017,05,20,11,42,8.10
2017,05,20,11,43,9.60
2017,05,20,11,44,8.10
2017,05,20,11,45,8.10
2017,05,20,11,46,8.10
2017,05,20,11,47,6.40
2017,05,20,11,48,9.60
2017,05,20,11,49,8.10
2017,05,20,11,50,6.40
2017,05,20,11,51,11.30
2017,05,20,11,52,9.60
2017,05,20,11,53,3.20
2017,05,20,11,54,1.60
2017,05,20,11,55,9.60
2017,05,20,11,56,8.10
2017,05,20,11,57,9.60
2017,05,20,11,58,8.10
2017,05,20,11,59,6.40
2017,05,20,12,00,9.60
2017,05,20,12,01,8.10
2017,05,20,12,02,9.60
2017,05,20,12,03,9.60
2017,05,20,12,04,9.60
2017,05,20,12,05,8.10
2017,05,20,12,06,9.60
2017,05,20,12,07,8.10
2017,05,20,12,08,8.10
2017,05,20,12,09,9.60
2017,05,20,12,10,6.40
2017,05,20,12,11,1.60
2017,05,20,12,12,4.80
2017,05,20,12,13,6.40
2017,05,20,12,14,14.50
2017,05,20,12,15,9.60
2017,05,20,12,16,11.30
2017,05,20,12,17,12.90
2017,05,20,12,18,11.30
2017,05,20,12,19,3.20
2017,05,20,12,20,8.10
2017,05,20,12,21,6.40
2017,05,20,12,22,6.40
2017,05,20,12,23,9.60
2017,05,20,12,24,11.30
2017,05,20,12,25,11.30
2017,05,20,12,26,8.10
2017,05,20,12,27,9.60
2017,05,20,12,28,11.30
2017,05,20,12,29,16.10
2017,05,20,12,30,17.70
2017,05,20,12,31,19.30
2017,05,20,12,32,14.50
2017,05,20,12,33,17.70
2017,05,20,12,34,14.50
2017,05,20,12,35,11.30
2017,05,20,12,36,11.30
2017,05,20,12,37,11.30
2017,05,20,12,38,8.10
2017,05,20,12,39,14.50
2017,05,20,12,40,11.30
2017,05,20,12,41,11.30
2017,05,20,12,42,9.60
2017,05,20,12,43,14.50
2017,05,20,12,44,9.60
2017,05,20,12,45,9.60
2017,05,20,12,46,8.10
2017,05,20,12,47,1.60
2017,05,20,12,48,1.60
2017,05,20,12,49,4.80
2017,05,20,12,50,8.10
2017,05,20,12,51,9.60
2017,05,20,12,52,4.80
2017,05,20,12,53,8.10
2017,05,20,12,54,8.10
2017,05,20,12,55,14.50
2017,05,20,12,56,9.60
2017,05,20,12,57,14.50
2017,05,20,12,58,9.60
2017,05,20,12,59,12.90
2017,05,20,13,00,9.60
2017,05,20,13,01,9.60
2017,05,20,13,02,9.60
2017,05,20,13,03,9.60
2017,05,20,13,04,14.50
2017,05,20,13,05,16.10
2017,05,20,13,06,16.10
2017,05,20,13,07,14.50
2017,05,20,13,08,14.50
2017,05,20,13,09,16.10
2017,05,20,13,10,14.50
2017,05,20,13,11,14.50
2017,05,20,13,12,14.50
2017,05,20,13,13,9.60
2017,05,20,13,14,14.50
2017,05,20,13,15,9.60
2017,05,20,13,16,11.30
2017,05,20,13,17,14.50
2017,05,20,13,18,9.60
2017,05,20,13,19,11.30
2017,05,20,13,20,11.30
2017,05,20,13,21,14.50
2017,05,20,13,22,9.60
2017,05,20,13,23,14.50
2017,05,20,13,24,6.40
2017,05,20,13,25,14.50
2017,05,20,13,26,14.50
2017,05,20,13,27,12.90
2017,05,20,13,28,17.70
2017,05,20,13,29,16.10
2017,05,20,13,30,11.30
2017,05,20,13,31,14.50
2017,05,20,13,32,14.50
2017,05,20,13,33,16.10
2017,05,20,13,34,16.10
2017,05,20,13,35,11.30
2017,05,20,13,36,11.30
2017,05,20,13,37,8.10
2017,05,20,13,38,16.10
2017,05,20,13,39,9.60
2017,05,20,13,40,8.10
2017,05,20,13,41,9.60
2017,05,20,13,42,9.60
2017,05,20,13,43,8.10
2017,05,20,13,44,8.10
2017,05,20,13,45,8.10
2017,05,20,13,46,9.60
2017,05,20,13,47,9.60
2017,05,20,13,48,14.50
2017,05,20,13,49,11.30
2017,05,20,13,50,14.50
2017,05,20,13,51,12.90
2017,05,20,13,52,14.50
2017,05,20,13,53,16.10
2017,05,20,13,54,11.30
2017,05,20,13,55,14.50
2017,05,20,13,56,9.60
2017,05,20,13,57,11.30
2017,05,20,13,58,11.30
2017,05,20,13,59,9.60
2017,05,20,14,00,11.30
2017,05,20,14,01,16.10
2017,05,20,14,02,16.10
2017,05,20,14,03,14.50
2017,05,20,14,04,17.70
2017,05,20,14,05,14.50
2017,05,20,14,06,12.90
2017,05,20,14,07,11.30
2017,05,20,14,08,14.50
2017,05,20,14,09,9.60
2017,05,20,14,10,11.30
2017,05,20,14,11,8.10
2017,05,20,14,12,14.50
2017,05,20,14,13,16.10
2017,05,20,14,14,16.10
2017,05,20,14,15,16.10
2017,05,20,14,16,16.10
2017,05,20,14,17,16.10
2017,05,20,14,18,14.50
2017,05,20,14,19,14.50
2017,05,20,14,20,12.90
2017,05,20,14,21,9.60
2017,05,20,14,22,9.60
2017,05,20,14,23,8.10
2017,05,20,14,24,11.30
2017,05,20,14,25,11.30
2017,05,20,14,26,8.10
2017,05,20,14,27,14.50
2017,05,20,14,28,11.30
2017,05,20,14,29,11.30
2017,05,20,14,30,9.60
2017,05,20,14,31,9.60
2017,05,20,14,32,11.30
2017,05,20,14,33,16.10
2017,05,20,14,34,9.60
2017,05,20,14,35,14.50
2017,05,20,14,36,9.60
2017,05,20,14,37,14.50
2017,05,20,14,38,11.30
2017,05,20,14,39,16.10
2017,05,20,14,40,11.30
2017,05,20,14,41,16.10
2017,05,20,14,42,14.50
2017,05,20,14,43,16.10
2017,05,20,14,44,16.10
2017,05,20,14,45,12.90
2017,05,20,14,46,16.10
2017,05,20,14,47,11.30
2017,05,20,14,48,11.30
2017,05,20,14,49,14.50
2017,05,20,14,50,9.60
2017,05,20,14,51,17.70
2017,05,20,14,52,14.50
2017,05,20,14,53,14.50
2017,05,20,14,54,16.10
2017,05,20,14,55,16.10
2017,05,20,14,56,16.10
2017,05,20,14,57,16.10
2017,05,20,14,58,9.60
2017,05,20,14,59,8.10
2017,05,20,15,00,6.40
2017,05,20,15,01,9.60
2017,05,20,15,02,14.50
2017,05,20,15,03,16.10
2017,05,20,15,04,14.50
2017,05,20,15,05,9.60
2017,05,20,15,06,14.50
2017,05,20,15,07,17.70
2017,05,20,15,08,8.10
2017,05,20,15,09,11.30
2017,05,20,15,10,8.10
2017,05,20,15,11,8.10
2017,05,20,15,12,9.60
2017,05,20,15,13,14.50
2017,05,20,15,14,14.50
2017,05,20,15,15,16.10
2017,05,20,15,16,12.90
2017,05,20,15,17,14.50
2017,05,20,15,18,16.10
2017,05,20,15,19,19.30
2017,05,20,15,20,11.30
2017,05,20,15,21,16.10
2017,05,20,15,22,17.70
2017,05,20,15,23,11.30
2017,05,20,15,24,11.30
2017,05,20,15,25,11.30
2017,05,20,15,26,9.60
2017,05,20,15,27,14.50
2017,05,20,15,28,9.60
2017,05,20,15,29,16.10
2017,05,20,15,30,11.30
2017,05,20,15,31,19.30
2017,05,20,15,32,12.90
2017,05,20,15,33,16.10
2017,05,20,15,34,11.30
2017,05,20,15,35,14.50
2017,05,20,15,36,16.10
2017,05,20,15,37,14.50
2017,05,20,15,38,16.10
2017,05,20,15,39,17.70
2017,05,20,15,40,17.70
2017,05,20,15,41,19.30
2017,05,20,15,42,14.50
2017,05,20,15,43,17.70
2017,05,20,15,44,17.70
2017,05,20,15,45,11.30
2017,05,20,15,46,14.50
2017,05,20,15,47,16.10
2017,05,20,15,48,12.90
2017,05,20,15,49,14.50
2017,05,20,15,50,11.30
2017,05,20,15,51,9.60
2017,05,20,15,52,11.30
2017,05,20,15,53,11.30
2017,05,20,15,54,12.90
2017,05,20,15,55,9.60
2017,05,20,15,56,6.40
2017,05,20,15,57,11.30
2017,05,20,15,58,8.10
2017,05,20,15,59,11.30
2017,05,20,16,00,6.40
2017,05,20,16,01,14.50
2017,05,20,16,02,8.10
2017,05,20,16,03,12.90
2017,05,20,16,04,14.50
2017,05,20,16,05,9.60
2017,05,20,16,06,16.10
2017,05,20,16,07,16.10
2017,05,20,16,08,14.50
2017,05,20,16,09,16.10
2017,05,20,16,10,11.30
2017,05,20,16,11,9.60
2017,05,20,16,12,16.10
2017,05,20,16,13,17.70
2017,05,20,16,14,14.50
2017,05,20,16,15,14.50
2017,05,20,16,16,17.70
2017,05,20,16,17,17.70
2017,05,20,16,18,17.70
2017,05,20,16,19,16.10
2017,05,20,16,20,14.50
2017,05,20,16,21,14.50
2017,05,20,16,22,14.50
2017,05,20,16,23,8.10
2017,05,20,16,24,17.70
2017,05,20,16,25,24.20
2017,05,20,16,26,16.10
2017,05,20,16,27,14.50
2017,05,20,16,28,17.70
2017,05,20,16,29,22.50
2017,05,20,16,30,16.10
2017,05,20,16,31,16.10
2017,05,20,16,32,16.10
2017,05,20,16,33,17.70
2017,05,20,16,34,17.70
2017,05,20,16,35,17.70
2017,05,20,16,36,16.10
2017,05,20,16,37,16.10
2017,05,20,16,38,17.70
2017,05,20,16,39,16.10
2017,05,20,16,40,17.70
2017,05,20,16,41,11.30
2017,05,20,16,42,17.70
2017,05,20,16,43,14.50
2017,05,20,16,44,16.10
2017,05,20,16,45,12.90
2017,05,20,16,46,14.50
2017,05,20,16,47,14.50
2017,05,20,16,48,14.50
2017,05,20,16,49,17.70
2017,05,20,16,50,12.90
2017,05,20,16,51,11.30
2017,05,20,16,52,16.10
2017,05,20,16,53,17.70
2017,05,20,16,54,11.30
2017,05,20,16,55,12.90
2017,05,20,16,56,16.10
2017,05,20,16,57,16.10
2017,05,20,16,58,17.70
2017,05,20,16,59,17.70
2017,05,20,17,00,17.70
2017,05,20,17,01,19.30
2017,05,20,17,02,11.30
2017,05,20,17,03,16.10
2017,05,20,17,04,17.70
2017,05,20,17,05,16.10
2017,05,20,17,06,19.30
2017,05,20,17,07,19.30
2017,05,20,17,08,17.70
2017,05,20,17,09,16.10
2017,05,20,17,10,19.30
2017,05,20,17,11,19.30
2017,05,20,17,12,17.70
2017,05,20,17,13,16.10
2017,05,20,17,14,16.10
2017,05,20,17,15,11.30
2017,05,20,17,16,9.60
2017,05,20,17,17,17.70
2017,05,20,17,18,16.10
2017,05,20,17,19,14.50
2017,05,20,17,20,11.30
2017,05,20,17,21,14.50
2017,05,20,17,22,16.10
2017,05,20,17,23,16.10
2017,05,20,17,24,16.10
2017,05,20,17,25,9.60
2017,05,20,17,26,9.60
2017,05,20,17,27,14.50
2017,05,20,17,28,6.40
2017,05,20,17,29,16.10
2017,05,20,17,30,17.70
2017,05,20,17,31,16.10
2017,05,20,17,32,17.70
2017,05,20,17,33,12.90
2017,05,20,17,34,16.10
2017,05,20,17,35,19.30
2017,05,20,17,36,14.50
2017,05,20,17,37,14.50
2017,05,20,17,38,14.50
2017,05,20,17,39,19.30
2017,05,20,17,40,19.30
2017,05,20,17,41,16.10
2017,05,20,17,42,14.50
2017,05,20,17,43,16.10
2017,05,20,17,44,17.70
2017,05,20,17,45,19.30
2017,05,20,17,46,19.30
2017,05,20,17,47,16.10
2017,05,20,17,48,17.70
2017,05,20,17,49,16.10
2017,05,20,17,50,16.10
2017,05,20,17,51,14.50
2017,05,20,17,52,11.30
2017,05,20,17,53,11.30
2017,05,20,17,54,14.50
2017,05,20,17,55,9.60
2017,05,20,17,56,9.60
2017,05,20,17,57,11.30
2017,05,20,17,58,11.30
2017,05,20,17,59,17.70
2017,05,20,18,00,16.10
2017,05,20,18,01,17.70
2017,05,20,18,02,16.10
2017,05,20,18,03,11.30
2017,05,20,18,04,12.90
2017,05,20,18,05,12.90
2017,05,20,18,06,11.30
2017,05,20,18,07,11.30
2017,05,20,18,08,19.30
2017,05,20,18,09,16.10
2017,05,20,18,10,14.50
2017,05,20,18,11,9.60
2017,05,20,18,12,9.60
2017,05,20,18,13,11.30
2017,05,20,18,14,9.60
2017,05,20,18,15,8.10
2017,05,20,18,16,4.80
2017,05,20,18,17,4.80
2017,05,20,18,18,9.60
2017,05,20,18,19,16.10
2017,05,20,18,20,9.60
2017,05,20,18,21,9.60
2017,05,20,18,22,8.10
2017,05,20,18,23,14.50
2017,05,20,18,24,11.30
2017,05,20,18,25,8.10
2017,05,20,18,26,6.40
2017,05,20,18,27,11.30
2017,05,20,18,28,11.30
2017,05,20,18,29,16.10
2017,05,20,18,30,16.10
2017,05,20,18,31,9.60
2017,05,20,18,32,16.10
2017,05,20,18,33,11.30
2017,05,20,18,34,14.50
2017,05,20,18,35,12.90
2017,05,20,18,36,14.50
2017,05,20,18,37,9.60
2017,05,20,18,38,11.30
2017,05,20,18,39,8.10
2017,05,20,18,40,4.80
2017,05,20,18,41,8.10
2017,05,20,18,42,8.10
2017,05,20,18,43,9.60
2017,05,20,18,44,6.40
2017,05,20,18,45,8.10
2017,05,20,18,46,8.10
2017,05,20,18,47,8.10
2017,05,20,18,48,16.10
2017,05,20,18,49,14.50
2017,05,20,18,50,12.90
2017,05,20,18,51,16.10
2017,05,20,18,52,9.60
2017,05,20,18,53,8.10
2017,05,20,18,54,6.40
2017,05,20,18,55,8.10
2017,05,20,18,56,8.10
2017,05,20,18,57,8.10
2017,05,20,18,58,6.40
2017,05,20,18,59,4.80
2017,05,20,19,00,4.80
2017,05,20,19,01,3.20
2017,05,20,19,02,1.60
2017,05,20,19,04,1.60
2017,05,20,19,05,3.20
2017,05,20,19,06,3.20
2017,05,20,19,07,8.10
2017,05,20,19,08,8.10
2017,05,20,19,09,3.20
2017,05,20,19,10,3.20
2017,05,20,19,13,1.60
2017,05,20,19,14,3.20
2017,05,20,19,17,4.80
2017,05,20,19,18,3.20
2017,05,20,19,19,3.20
2017,05,20,19,23,1.60
2017,05,20,19,24,3.20
2017,05,20,19,25,3.20
2017,05,20,19,26,3.20
2017,05,20,19,27,4.80
2017,05,20,19,28,4.80
2017,05,20,19,29,3.20
2017,05,20,19,30,6.40
2017,05,20,19,31,4.80
2017,05,20,19,34,1.60
2017,05,20,19,35,1.60
2017,05,20,19,37,1.60
2017,05,20,19,39,1.60
2017,05,20,19,41,1.60
2017,05,20,19,42,1.60
2017,05,20,19,43,6.40
2017,05,20,19,44,3.20
2017,05,20,19,47,3.20
2017,05,20,19,48,3.20
2017,05,20,19,49,3.20
2017,05,20,19,50,8.10
2017,05,20,19,51,4.80
2017,05,20,19,52,4.80
2017,05,20,19,53,4.80
2017,05,20,19,54,6.40
2017,05,20,19,58,3.20
2017,05,20,20,01,1.60
2017,05,20,20,02,1.60
2017,05,20,20,03,3.20
2017,05,20,20,04,1.60
2017,05,20,20,05,4.80
2017,05,20,20,06,3.20
2017,05,20,20,11,4.80
2017,05,20,20,16,6.40
2017,05,20,20,17,4.80
2017,05,20,20,23,1.60
2017,05,20,20,24,6.40
2017,05,20,20,25,6.40
2017,05,20,20,26,3.20
2017,05,20,20,27,6.40
2017,05,20,20,28,4.80
2017,05,20,20,29,3.20
2017,05,20,20,30,1.60
2017,05,20,20,36,1.60
2017,05,20,20,37,6.40
2017,05,20,20,38,6.40
2017,05,20,20,39,6.40
2017,05,20,20,40,6.40
2017,05,20,20,41,4.80
2017,05,20,20,42,8.10
2017,05,20,20,43,3.20
2017,05,20,20,44,4.80
2017,05,20,20,45,1.60
2017,05,20,20,46,3.20
2017,05,20,20,47,4.80
2017,05,20,20,49,4.80
2017,05,20,20,50,3.20
2017,05,20,20,52,3.20
2017,05,20,20,53,3.20
2017,05,20,20,54,6.40
2017,05,20,20,55,9.60
2017,05,20,20,56,9.60
2017,05,20,20,57,8.10
2017,05,20,20,58,6.40
2017,05,20,20,59,8.10
2017,05,20,21,00,6.40
2017,05,20,21,01,9.60
2017,05,20,21,02,11.30
2017,05,20,21,03,11.30
2017,05,20,21,04,11.30
2017,05,20,21,05,9.60
2017,05,20,21,06,11.30
2017,05,20,21,07,9.60
2017,05,20,21,08,8.10
2017,05,20,21,09,4.80
2017,05,20,21,10,4.80
2017,05,20,21,11,6.40
2017,05,20,21,12,8.10
2017,05,20,21,13,11.30
2017,05,20,21,14,8.10
2017,05,20,21,15,9.60
2017,05,20,21,16,9.60
2017,05,20,21,17,16.10
2017,05,20,21,18,14.50
2017,05,20,21,19,11.30
2017,05,20,21,20,8.10
2017,05,20,21,21,4.80
2017,05,20,21,22,8.10
2017,05,20,21,23,8.10
2017,05,20,21,24,8.10
2017,05,20,21,25,11.30
2017,05,20,21,26,9.60
2017,05,20,21,27,14.50
2017,05,20,21,28,17.70
2017,05,20,21,29,11.30
2017,05,20,21,30,16.10
2017,05,20,21,31,14.50
2017,05,20,21,32,16.10
2017,05,20,21,33,16.10
2017,05,20,21,34,14.50
2017,05,20,21,35,9.60
2017,05,20,21,36,11.30
2017,05,20,21,37,9.60
2017,05,20,21,38,11.30
2017,05,20,21,39,11.30
2017,05,20,21,40,9.60
2017,05,20,21,41,9.60
2017,05,20,21,42,14.50
2017,05,20,21,43,9.60
2017,05,20,21,44,14.50
2017,05,20,21,45,16.10
2017,05,20,21,46,11.30
2017,05,20,21,47,9.60
2017,05,20,21,48,11.30
2017,05,20,21,49,11.30
2017,05,20,21,50,9.60
2017,05,20,21,51,9.60
2017,05,20,21,52,6.40
2017,05,20,21,53,9.60
2017,05,20,21,54,9.60
2017,05,20,21,55,9.60
2017,05,20,21,56,8.10
2017,05,20,21,57,8.10
2017,05,20,21,58,6.40
2017,05,20,21,59,9.60
2017,05,20,22,00,9.60
2017,05,20,22,01,14.50
2017,05,20,22,02,6.40
2017,05,20,22,03,4.80
2017,05,20,22,04,8.10
2017,05,20,22,05,8.10
2017,05,20,22,06,11.30
2017,05,20,22,07,9.60
2017,05,20,22,08,11.30
2017,05,20,22,09,9.60
2017,05,20,22,10,16.10
2017,05,20,22,11,16.10
2017,05,20,22,12,14.50
2017,05,20,22,13,11.30
2017,05,20,22,14,12.90
2017,05,20,22,15,14.50
2017,05,20,22,16,9.60
2017,05,20,22,17,11.30
2017,05,20,22,18,14.50
2017,05,20,22,19,9.60
2017,05,20,22,20,9.60
2017,05,20,22,21,9.60
2017,05,20,22,22,6.40
2017,05,20,22,23,11.30
2017,05,20,22,24,9.60
2017,05,20,22,25,9.60
2017,05,20,22,26,11.30
2017,05,20,22,27,9.60
2017,05,20,22,28,19.30
2017,05,20,22,29,14.50
2017,05,20,22,30,11.30
2017,05,20,22,31,11.30
2017,05,20,22,32,6.40
2017,05,20,22,33,11.30
2017,05,20,22,34,17.70
2017,05,20,22,35,4.80
2017,05,20,22,36,9.60
2017,05,20,22,37,6.40
2017,05,20,22,38,11.30
2017,05,20,22,39,1.60
2017,05,20,22,40,4.80
2017,05,20,22,41,4.80
2017,05,20,22,42,1.60
2017,05,20,22,43,4.80
2017,05,20,22,44,1.60
2017,05,20,22,45,6.40
2017,05,20,22,46,6.40
2017,05,20,22,47,3.20
2017,05,20,22,48,3.20
2017,05,20,22,49,6.40
2017,05,20,22,50,6.40
2017,05,20,22,51,14.50
2017,05,20,22,52,9.60
2017,05,20,22,53,6.40
2017,05,20,22,54,8.10
2017,05,20,22,55,9.60
2017,05,20,22,56,8.10
2017,05,20,22,57,6.40
2017,05,20,22,58,6.40
2017,05,20,22,59,4.80
2017,05,20,23,00,4.80
2017,05,20,23,01,9.60
2017,05,20,23,02,9.60
2017,05,20,23,03,1.60
2017,05,20,23,04,9.60
2017,05,20,23,05,8.10
2017,05,20,23,06,8.10
2017,05,20,23,07,3.20
2017,05,20,23,09,8.10
2017,05,20,23,10,6.40
2017,05,20,23,11,6.40
2017,05,20,23,12,3.20
2017,05,20,23,13,6.40
2017,05,20,23,14,6.40
2017,05,20,23,15,8.10
2017,05,20,23,16,11.30
2017,05,20,23,17,9.60
2017,05,20,23,18,8.10
2017,05,20,23,19,8.10
2017,05,20,23,20,16.10
2017,05,20,23,21,14.50
2017,05,20,23,22,9.60
2017,05,20,23,23,11.30
2017,05,20,23,24,11.30
2017,05,20,23,25,6.40
2017,05,20,23,26,9.60
2017,05,20,23,27,9.60
2017,05,20,23,28,8.10
2017,05,20,23,29,14.50
2017,05,20,23,30,9.60
2017,05,20,23,31,8.10
2017,05,20,23,32,8.10
2017,05,20,23,33,9.60
2017,05,20,23,34,16.10
2017,05,20,23,35,11.30
2017,05,20,23,36,9.60
2017,05,20,23,37,8.10
2017,05,20,23,38,9.60
2017,05,20,23,39,11.30
2017,05,20,23,40,9.60
2017,05,20,23,41,9.60
2017,05,20,23,42,14.50
2017,05,20,23,43,16.10
2017,05,20,23,44,16.10
2017,05,20,23,45,9.60
2017,05,20,23,46,16.10
2017,05,20,23,47,14.50
2017,05,20,23,48,16.10
2017,05,20,23,49,14.50
2017,05,20,23,50,14.50
2017,05,20,23,51,11.30
2017,05,20,23,52,16.10
2017,05,20,23,53,14.50
2017,05,20,23,54,11.30
2017,05,20,23,55,14.50
2017,05,20,23,56,17.70
2017,05,20,23,57,11.30
2017,05,20,23,58,11.30
2017,05,20,23,59,16.10
